EW2345 Weather Reports


Display with metric or nautical units.
time (UTC)temp
F
wind
direction
speed
MPH
gust
MPH
rain 1hr
in
rain 24hr
in
rain mn
in
humidity
%
barometer
mb
20260509075910 58 99 1.0 6.0 0.00 0.07 0.06 81 1005.5
20260509075409 58 64 1.0 8.0 0.00 0.07 0.06 80 1005.5
20260509073909 59 78 1.0 8.0 0.00 0.07 0.06 80 1005.4
20260509073409 59 74 2.0 7.0 0.00 0.07 0.06 82 1005.4
20260509072911 58 80 2.0 7.0 0.00 0.07 0.06 83 1005.5
20260509072409 58 62 1.0 6.0 0.00 0.07 0.06 85 1005.5
20260509071910 57 67 4.0 6.0 0.00 0.07 0.06 89 1005.5
20260509071410 56 68 5.0 6.0 0.00 0.07 0.06 90 1005.5
20260509070910 55 70 3.0 6.0 0.00 0.07 0.06 93 1005.6
20260509070409 54 70 2.0 7.0 0.00 0.07 0.06 93 1005.6
20260509065910 53 73 1.0 5.0 0.00 0.08 0.06 93 1005.7
20260509065408 53 78 2.0 5.0 0.00 0.08 0.06 93 1005.5
20260509064410 52 82 0.0 5.0 0.00 0.10 0.06 94 1005.5
20260509063909 52 80 2.0 7.0 0.00 0.11 0.06 94 1005.6
20260509063409 51 91 3.0 9.0 0.00 0.12 0.06 94 1005.6
20260509062409 51 49 2.0 3.0 0.00 0.12 0.06 94 1005.7
20260509061409 51 80 3.0 6.0 0.00 0.12 0.06 93 1005.7
20260509060909 51 80 3.0 5.0 0.00 0.12 0.06 93 1005.7
20260509060409 51 80 1.0 5.0 0.00 0.12 0.06 93 1005.8
20260509055910 51 80 1.0 5.0 0.00 0.12 0.06 93 1005.7
20260509055409 51 80 1.0 5.0 0.00 0.12 0.06 93 1005.8
20260509053909 51 92 0.0 3.0 0.00 0.12 0.06 93 1005.4
20260509053409 51 92 1.0 5.0 0.00 0.12 0.06 92 1005.4
20260509052910 52 119 1.0 3.0 0.00 0.12 0.06 92 1005.4
20260509052409 52 119 1.0 3.0 0.00 0.12 0.06 92 1005.5
20260509051909 52 119 2.0 5.0 0.00 0.12 0.06 92 1005.5
20260509050909 52 119 3.0 5.0 0.00 0.12 0.06 92 1005.5
20260509045409 52 119 2.0 3.0 0.00 0.12 0.06 92 1005.7
20260509044409 53 119 1.0 3.0 0.00 0.12 0.06 92 1005.8
20260509043909 53 119 0.0 1.0 0.00 0.12 0.06 91 1005.7
20260509043409 53 119 0.0 1.0 0.00 0.12 0.06 91 1005.8
20260509042911 53 119 0.0 1.0 0.00 0.12 0.06 92 1005.8
20260509042409 53 119 0.0 3.0 0.00 0.12 0.06 91 1005.8
20260509041909 53 118 0.0 3.0 0.00 0.12 0.06 91 1005.8
20260509041409 53 126 1.0 3.0 0.00 0.12 0.06 91 1005.9
20260509040909 53 140 1.0 5.0 0.00 0.12 0.06 91 1005.8
20260509040409 53 120 1.0 6.0 0.00 0.12 0.06 91 1005.8
20260509035910 53 152 1.0 7.0 0.00 0.12 0.06 92 1005.8
20260509034908 53 77 1.0 3.0 0.00 0.12 0.06 93 1005.7
20260509034409 53 81 1.0 3.0 0.00 0.12 0.06 93 1005.8
20260509033910 53 81 0.0 3.0 0.00 0.12 0.06 93 1005.8
20260509033409 53 81 1.0 2.0 0.00 0.12 0.06 93 1005.8
20260509032910 53 81 1.0 3.0 0.00 0.12 0.06 93 1005.9
20260509032409 52 81 1.0 3.0 0.00 0.12 0.06 93 1006.0
20260509031909 52 81 0.0 3.0 0.00 0.12 0.06 93 1006.0
20260509031409 52 80 1.0 3.0 0.00 0.12 0.06 94 1006.0
20260509030909 52 94 2.0 6.0 0.01 0.12 0.06 94 1006.0
20260509030409 52 131 2.0 7.0 0.01 0.12 0.06 94 1006.1
20260509025910 52 108 2.0 8.0 0.01 0.12 0.06 94 1006.0
20260509025409 52 57 2.0 6.0 0.01 0.12 0.06 94 1006.1
20260509024909 52 76 0.0 5.0 0.01 0.12 0.06 93 1006.1
20260509023910 52 76 1.0 3.0 0.01 0.12 0.06 93 1006.0
20260509023409 52 76 1.0 3.0 0.02 0.12 0.06 93 1005.9
20260509022408 52 63 1.0 5.0 0.03 0.12 0.06 92 1006.1
20260509021909 52 63 1.0 5.0 0.04 0.12 0.06 92 1006.1
20260509021409 53 61 1.0 6.0 0.05 0.12 0.06 91 1006.1
20260509020909 53 61 0.0 3.0 0.05 0.11 0.05 91 1006.2
20260509020409 53 61 0.0 2.0 0.05 0.11 0.05 91 1006.1
20260509015410 54 104 4.0 6.0 0.05 0.11 0.05 89 1006.4
20260509014908 54 141 2.0 3.0 0.05 0.11 0.05 89 1006.7
20260509014409 54 149 1.0 3.0 0.05 0.11 0.05 89 1007.0
20260509013909 54 149 0.0 2.0 0.05 0.11 0.05 88 1006.9
20260509012910 54 160 1.0 6.0 0.04 0.10 0.04 87 1006.9
20260509012409 54 158 3.0 7.0 0.02 0.09 0.02 87 1007.0
20260509011909 54 150 1.0 7.0 0.02 0.08 0.02 86 1007.0
20260509011409 54 158 3.0 10.0 0.01 0.07 0.01 85 1006.9
20260509010909 54 174 5.0 10.0 0.00 0.06 0.00 84 1006.9
20260509005910 54 72 3.0 3.0 0.00 0.06 0.00 82 1006.7
20260509005409 54 72 1.0 3.0 0.00 0.06 0.00 82 1006.7
20260509004409 54 71 1.0 5.0 0.00 0.06 0.00 83 1006.8
20260509003909 54 71 0.0 5.0 0.00 0.06 0.00 84 1006.9
20260509003409 54 71 3.0 5.0 0.00 0.06 0.00 83 1006.9
20260509002910 53 73 1.0 3.0 0.00 0.06 0.00 83 1006.9
20260509002409 53 74 1.0 3.0 0.00 0.06 0.00 84 1007.0
20260509001909 53 74 0.0 1.0 0.00 0.06 0.00 84 1006.9
20260509001409 53 74 1.0 7.0 0.00 0.06 0.00 84 1007.0
20260509000410 53 36 3.0 9.0 0.00 0.06 0.00 85 1007.1
20260508235910 53 35 5.0 8.0 0.00 0.06 0.00 87 1007.1
20260508235409 52 161 2.0 3.0 0.00 0.06 0.00 87 1007.3
20260508234909 52 164 1.0 3.0 0.00 0.06 0.00 87 1007.4
20260508234409 52 165 1.0 6.0 0.00 0.06 0.00 88 1007.4
20260508233910 52 165 4.0 7.0 0.00 0.06 0.00 87 1007.4
20260508233409 52 136 2.0 6.0 0.00 0.06 0.00 88 1007.3
20260508232409 52 34 2.0 5.0 0.00 0.06 0.00 89 1007.6
20260508231909 52 40 6.0 12.0 0.00 0.06 0.00 89 1007.6
20260508231409 52 33 3.0 8.0 0.00 0.06 0.00 89 1007.7
20260508230909 52 34 0.0 6.0 0.00 0.06 0.00 89 1007.7
20260508230409 52 34 1.0 12.0 0.00 0.06 0.00 90 1007.8
20260508225910 52 32 7.0 13.0 0.00 0.06 0.00 90 1007.8
20260508225409 51 32 8.0 12.0 0.00 0.06 0.00 91 1008.0
20260508224909 51 33 4.0 9.0 0.00 0.06 0.00 90 1008.0
20260508224408 51 33 3.0 5.0 0.00 0.06 0.00 91 1008.1
20260508223909 51 33 4.0 7.0 0.00 0.06 0.00 90 1008.1
20260508222910 51 33 7.0 10.0 0.00 0.06 0.00 91 1008.2
20260508222409 51 33 6.0 10.0 0.00 0.06 0.00 90 1008.3
20260508221909 51 32 5.0 10.0 0.00 0.06 0.00 90 1008.4
20260508221409 51 33 6.0 12.0 0.00 0.06 0.00 90 1008.5
20260508220909 51 39 6.0 12.0 0.00 0.06 0.00 90 1008.6
20260508220409 51 45 6.0 10.0 0.00 0.06 0.00 90 1008.6
20260508214909 51 50 5.0 8.0 0.00 0.06 0.06 90 1008.8
20260508214409 51 50 3.0 7.0 0.00 0.06 0.06 89 1008.8
20260508213409 51 38 1.0 2.0 0.00 0.06 0.06 88 1008.8
20260508212910 51 38 4.0 7.0 0.00 0.06 0.06 88 1008.9
20260508212409 51 38 5.0 9.0 0.00 0.06 0.06 88 1008.9
20260508211909 51 42 4.0 6.0 0.00 0.06 0.06 87 1008.8
20260508211409 52 42 1.0 5.0 0.00 0.06 0.06 87 1008.9
20260508210909 52 42 5.0 7.0 0.00 0.06 0.06 87 1008.9
20260508205910 52 41 0.0 1.0 0.00 0.06 0.06 87 1008.9
20260508205409 52 40 1.0 3.0 0.00 0.06 0.06 86 1008.9
20260508204910 53 40 2.0 5.0 0.00 0.06 0.06 86 1008.8
20260508204409 53 40 1.0 5.0 0.00 0.06 0.06 85 1008.8
20260508203909 53 41 0.0 5.0 0.00 0.06 0.06 85 1008.8
20260508203409 53 9 2.0 3.0 0.00 0.06 0.06 85 1008.8
20260508202910 54 9 1.0 5.0 0.00 0.06 0.06 84 1008.7
20260508202409 54 9 0.0 3.0 0.00 0.06 0.06 84 1008.7
20260508201909 54 9 0.0 3.0 0.00 0.06 0.06 84 1008.6
20260508201409 54 9 1.0 5.0 0.00 0.06 0.06 84 1008.7
20260508200909 55 9 1.0 2.0 0.00 0.06 0.06 84 1008.7
20260508195410 55 9 0.0 2.0 0.00 0.06 0.06 84 1008.7
20260508194909 55 9 1.0 5.0 0.00 0.06 0.06 84 1008.7
20260508194409 56 9 2.0 3.0 0.00 0.06 0.06 83 1008.7
20260508193909 56 9 1.0 5.0 0.00 0.06 0.06 83 1008.6
20260508193409 56 9 3.0 5.0 0.00 0.06 0.06 83 1008.5
20260508192910 56 9 2.0 7.0 0.00 0.06 0.06 82 1008.6
20260508192409 57 333 1.0 3.0 0.00 0.06 0.06 81 1008.6
20260508191909 57 333 1.0 3.0 0.00 0.06 0.06 81 1008.7
20260508191409 57 333 0.0 1.0 0.00 0.06 0.06 80 1008.8
20260508190909 57 333 0.0 2.0 0.00 0.06 0.06 79 1008.9
20260508190409 58 333 2.0 2.0 0.00 0.06 0.06 78 1008.9
20260508185409 58 333 0.0 0.0 0.00 0.06 0.06 77 1008.8
20260508184909 58 333 0.0 0.0 0.00 0.06 0.06 77 1008.8
20260508184409 58 333 0.0 0.0 0.00 0.06 0.06 78 1008.8
20260508183909 58 333 0.0 1.0 0.00 0.06 0.06 78 1008.8
20260508183409 58 333 0.0 0.0 0.00 0.06 0.06 77 1008.8
20260508182910 58 333 1.0 2.0 0.00 0.06 0.06 76 1008.8
20260508182409 58 333 0.0 1.0 0.00 0.06 0.06 76 1008.7
20260508181910 58 333 0.0 0.0 0.00 0.06 0.06 75 1008.7
20260508181409 58 333 0.0 1.0 0.00 0.06 0.06 76 1008.7
20260508180909 58 333 1.0 3.0 0.00 0.06 0.06 75 1008.7
20260508180409 58 333 2.0 5.0 0.00 0.06 0.06 75 1008.6
20260508175910 58 333 2.0 6.0 0.00 0.06 0.06 74 1008.6
20260508175409 58 333 4.0 6.0 0.00 0.06 0.06 75 1008.6
20260508174909 58 331 2.0 5.0 0.00 0.06 0.06 74 1008.6
20260508174409 58 331 3.0 6.0 0.00 0.06 0.06 76 1008.7
20260508173910 58 249 1.0 5.0 0.00 0.06 0.06 75 1008.8
20260508173409 59 248 3.0 6.0 0.00 0.06 0.06 78 1008.9
20260508172910 59 249 5.0 7.0 0.00 0.06 0.06 75 1009.0
20260508172409 59 249 2.0 6.0 0.00 0.06 0.06 74 1009.0
20260508171909 59 249 1.0 7.0 0.00 0.06 0.06 73 1009.0
20260508171409 59 243 5.0 8.0 0.00 0.06 0.06 76 1009.0
20260508170910 59 234 5.0 7.0 0.00 0.06 0.06 76 1009.0
20260508170409 59 241 4.0 8.0 0.00 0.06 0.06 73 1008.9
20260508164909 60 224 8.0 13.0 0.00 0.06 0.06 70 1008.8
20260508164409 60 213 8.0 13.0 0.00 0.06 0.06 72 1008.8
20260508163909 59 223 7.0 10.0 0.00 0.06 0.06 74 1008.8
20260508163409 59 256 6.0 12.0 0.00 0.06 0.06 77 1008.9
20260508162910 58 283 5.0 8.0 0.00 0.06 0.06 79 1008.9
20260508162409 58 259 5.0 12.0 0.00 0.06 0.06 78 1008.9
20260508161909 58 231 9.0 13.0 0.00 0.06 0.06 77 1008.9
20260508161409 59 219 6.0 9.0 0.00 0.06 0.06 79 1009.0
20260508160910 59 259 5.0 10.0 0.00 0.06 0.06 79 1009.0
20260508160409 58 260 3.0 7.0 0.00 0.06 0.06 83 1009.0
20260508155910 57 242 3.0 7.0 0.00 0.06 0.06 84 1009.0
20260508154409 58 240 7.0 15.0 0.00 0.06 0.06 81 1009.0
20260508153909 58 236 7.0 13.0 0.00 0.06 0.06 80 1009.0
20260508153409 58 250 7.0 15.0 0.00 0.06 0.06 80 1009.0
20260508152910 58 242 6.0 15.0 0.00 0.06 0.06 81 1009.1
20260508152409 58 243 8.0 12.0 0.00 0.06 0.06 82 1009.0
20260508151909 58 251 5.0 12.0 0.00 0.06 0.06 81 1009.1
20260508151409 58 244 7.0 13.0 0.00 0.06 0.06 81 1009.1
20260508150909 59 238 7.0 12.0 0.00 0.06 0.06 81 1009.1
20260508150409 59 257 7.0 12.0 0.00 0.06 0.06 80 1009.1
20260508145910 59 249 6.0 12.0 0.00 0.06 0.06 82 1009.2
20260508144409 58 225 5.0 8.0 0.00 0.06 0.06 83 1009.4
20260508143909 58 266 5.0 12.0 0.00 0.06 0.06 84 1009.4
20260508143409 58 236 5.0 8.0 0.00 0.06 0.06 84 1009.4
20260508142910 57 246 4.0 8.0 0.00 0.06 0.06 84 1009.5
20260508142409 58 248 5.0 9.0 0.00 0.06 0.06 83 1009.6
20260508141909 58 227 5.0 9.0 0.00 0.06 0.06 83 1009.6
20260508141410 57 255 5.0 8.0 0.00 0.06 0.06 86 1009.7
20260508140909 57 306 2.0 7.0 0.00 0.06 0.06 84 1009.7
20260508140410 58 241 6.0 9.0 0.00 0.06 0.06 85 1009.8
20260508135911 56 284 3.0 7.0 0.00 0.06 0.06 89 1009.8
20260508135409 56 249 6.0 8.0 0.00 0.06 0.06 92 1010.0
20260508134909 56 232 2.0 6.0 0.01 0.06 0.06 92 1010.1
20260508134409 54 232 5.0 10.0 0.01 0.06 0.06 94 1010.1
20260508133410 54 243 5.0 9.0 0.02 0.06 0.06 94 1010.2
20260508132911 54 235 6.0 9.0 0.02 0.06 0.06 95 1010.2
20260508131408 54 257 7.0 12.0 0.02 0.06 0.06 96 1010.2
20260508130909 54 255 9.0 15.0 0.02 0.06 0.06 97 1010.2
20260508125910 54 241 6.0 12.0 0.02 0.06 0.06 97 1010.3
20260508125409 53 247 6.0 12.0 0.02 0.06 0.06 97 1010.2
20260508124909 53 250 5.0 12.0 0.01 0.06 0.06 95 1010.2
20260508124409 53 233 8.0 15.0 0.01 0.06 0.06 94 1010.2
20260508123409 55 243 10.0 18.0 0.00 0.05 0.05 88 1009.9
20260508122910 56 240 10.0 24.0 0.00 0.05 0.05 86 1009.8
20260508122410 57 238 10.0 23.0 0.00 0.05 0.05 86 1009.7
20260508121909 57 229 7.0 12.0 0.00 0.05 0.05 87 1009.8
20260508120910 56 225 8.0 12.0 0.00 0.05 0.05 87 1009.7
20260508120409 57 226 10.0 14.0 0.00 0.05 0.05 81 1009.7
20260508115910 59 226 12.0 20.0 0.00 0.05 0.05 76 1009.6
20260508115409 60 230 9.0 16.0 0.00 0.05 0.05 75 1009.5
20260508114909 60 228 9.0 12.0 0.00 0.05 0.05 77 1009.5
20260508114409 60 227 9.0 12.0 0.00 0.05 0.05 75 1009.5
20260508113410 62 218 9.0 14.0 0.00 0.05 0.05 78 1009.5
20260508112911 62 218 8.0 15.0 0.00 0.05 0.05 77 1009.5
20260508112409 61 229 8.0 15.0 0.00 0.05 0.05 76 1009.5
20260508111409 60 229 11.0 15.0 0.00 0.05 0.05 77 1009.6
20260508110910 60 217 9.0 13.0 0.00 0.05 0.05 80 1009.6
20260508110410 59 221 7.0 12.0 0.00 0.05 0.05 80 1009.6
20260508105409 58 245 3.0 7.0 0.00 0.05 0.05 81 1009.7
20260508104909 58 244 3.0 5.0 0.00 0.05 0.05 85 1009.8
20260508104409 57 244 2.0 5.0 0.00 0.05 0.05 86 1009.8
20260508103909 57 244 1.0 5.0 0.00 0.05 0.05 84 1009.8
20260508103409 57 243 3.0 5.0 0.00 0.05 0.05 86 1009.9
20260508102910 57 243 2.0 6.0 0.00 0.05 0.05 85 1010.0
20260508102409 57 242 3.0 6.0 0.00 0.05 0.05 89 1010.0
20260508101409 56 250 5.0 7.0 0.00 0.05 0.05 88 1010.0
20260508100409 56 241 4.0 7.0 0.00 0.05 0.05 87 1010.0
20260508095911 57 247 4.0 8.0 0.00 0.05 0.05 88 1010.0
20260508095410 57 241 5.0 7.0 0.00 0.05 0.05 87 1010.0
20260508094909 57 242 6.0 9.0 0.00 0.05 0.05 86 1009.9
20260508094410 57 221 5.0 8.0 0.00 0.05 0.05 90 1009.8
20260508093909 57 211 3.0 6.0 0.00 0.05 0.05 92 1009.7
20260508093409 56 210 3.0 6.0 0.00 0.05 0.05 94 1009.7
20260508092910 54 210 3.0 6.0 0.00 0.05 0.05 94 1009.7
20260508092409 54 205 4.0 6.0 0.00 0.05 0.05 95 1009.7
20260508091909 54 187 5.0 6.0 0.00 0.05 0.05 95 1009.8
20260508091409 54 86 1.0 3.0 0.00 0.05 0.05 93 1009.8
20260508090909 54 86 0.0 0.0 0.00 0.05 0.05 95 1009.7
20260508085409 53 86 0.0 1.0 0.00 0.05 0.05 95 1009.7
20260508084909 53 86 0.0 0.0 0.00 0.05 0.05 95 1009.7
20260508084409 52 86 0.0 0.0 0.00 0.05 0.05 97 1009.7
20260508083909 52 86 1.0 2.0 0.00 0.05 0.05 98 1009.6
20260508083409 52 86 1.0 3.0 0.00 0.05 0.05 98 1009.6
20260508082911 51 86 1.0 5.0 0.00 0.05 0.05 99 1009.7
20260508082409 51 87 1.0 3.0 0.00 0.05 0.05 99 1009.7
20260508081409 51 87 0.0 1.0 0.00 0.05 0.05 99 1009.6
20260508080909 50 87 0.0 0.0 0.00 0.05 0.05 99 1009.6